DLH770 EDDM-VIDP

Flight info

Callsign DLH770
Flight time N/A
Altitude 23000
Route KIRDI4N KIRDI DCT BUWOQ DCT OBFEZ/N0482F350 DCT STEIN DCT SIRDU DCT GITAS DCT BOKSI DCT TEGRI DCT UDROS/N0489F370 UN743 GAKSU UT310 SIN UN644 KARDE UL851 TBN UR317 REBLO P130 MAMED B449 DOLOS B475 NINOP A909 LEMOD/N0482F390 N644 DI A466 ELKUX ELKUX7C
Aircraft A359/H-SDE2E3GHIJ3J4J5LM1ORWXY/LB1D1

Departure

Time 2026-05-06 07:01
Airport Munich Airport (EDDM)

Arrival

Time N/A
Airport Indira Gandhi International Airport (VIDP)
Time Latitude Longitude Altitude Speed Heading
2026-05-06 05:16 48.35544 11.79298 1471 ft 0 kts 263°
2026-05-06 06:38 48.35546 11.79323 1461 ft 3 kts 263°
2026-05-06 06:38 48.35549 11.79359 1461 ft 3 kts 263°
2026-05-06 06:39 48.35552 11.79394 1461 ft 2 kts 263°
2026-05-06 06:39 48.35553 11.79424 1461 ft 4 kts 299°
2026-05-06 06:39 48.35538 11.79441 1461 ft 3 kts 354°
2026-05-06 06:39 48.35520 11.79443 1461 ft 0 kts 352°
2026-05-06 06:49 48.35530 11.79441 1461 ft 4 kts 352°
2026-05-06 06:49 48.35578 11.79434 1461 ft 8 kts 354°
2026-05-06 06:49 48.35639 11.79425 1467 ft 9 kts 353°
2026-05-06 06:49 48.35704 11.79412 1467 ft 10 kts 351°
2026-05-06 06:50 48.35773 11.79397 1461 ft 10 kts 352°
2026-05-06 06:50 48.35847 11.79380 1466 ft 11 kts 348°
2026-05-06 06:50 48.35923 11.79352 1467 ft 12 kts 347°
2026-05-06 06:50 48.36002 11.79332 1465 ft 12 kts 352°
2026-05-06 06:51 48.36054 11.79326 1466 ft 7 kts
2026-05-06 06:51 48.36090 11.79358 1462 ft 5 kts 49°
2026-05-06 06:51 48.36101 11.79413 1467 ft 6 kts 82°
2026-05-06 06:51 48.36105 11.79482 1463 ft 8 kts 84°
2026-05-06 06:52 48.36111 11.79573 1474 ft 10 kts 84°
2026-05-06 06:52 48.36119 11.79680 1474 ft 11 kts 84°
2026-05-06 06:52 48.36129 11.79799 1468 ft 12 kts 82°
2026-05-06 06:52 48.36138 11.79923 1467 ft 12 kts 83°
2026-05-06 06:53 48.36149 11.80054 1470 ft 13 kts 83°
2026-05-06 06:53 48.36159 11.80189 1467 ft 13 kts 83°
2026-05-06 06:53 48.36170 11.80329 1465 ft 14 kts 83°
2026-05-06 06:53 48.36181 11.80473 1467 ft 14 kts 83°
2026-05-06 06:54 48.36192 11.80620 1465 ft 14 kts 84°
2026-05-06 06:54 48.36204 11.80770 1468 ft 15 kts 83°
2026-05-06 06:54 48.36217 11.80923 1468 ft 15 kts 83°
2026-05-06 06:54 48.36228 11.81079 1471 ft 15 kts 84°
2026-05-06 06:55 48.36239 11.81237 1465 ft 15 kts 84°
2026-05-06 06:55 48.36251 11.81399 1462 ft 16 kts 84°
2026-05-06 06:55 48.36263 11.81564 1467 ft 16 kts 83°
2026-05-06 06:55 48.36276 11.81726 1465 ft 14 kts 83°
2026-05-06 06:56 48.36286 11.81850 1470 ft 9 kts 82°
2026-05-06 06:56 48.36301 11.81905 1463 ft 9 kts 62°
2026-05-06 06:56 48.36341 11.81975 1461 ft 9 kts 39°
2026-05-06 06:56 48.36401 11.82013 1462 ft 10 kts
2026-05-06 06:57 48.36447 11.82010 1466 ft 0 kts 354°
2026-05-06 06:58 48.36477 11.82004 1460 ft 9 kts 353°
2026-05-06 06:58 48.36544 11.81993 1462 ft 10 kts 353°
2026-05-06 06:59 48.36614 11.81979 1472 ft 10 kts 348°
2026-05-06 06:59 48.36662 11.81915 1463 ft 9 kts 289°
2026-05-06 06:59 48.36665 11.81816 1465 ft 10 kts 266°
2026-05-06 06:59 48.36663 11.81779 1465 ft 0 kts 264°
2026-05-06 07:00 48.36663 11.81776 1472 ft 4 kts 264°
2026-05-06 07:00 48.36637 11.81429 1462 ft 66 kts 263°
2026-05-06 07:00 48.36555 11.80426 1463 ft 125 kts 264°
2026-05-06 07:01 48.36439 11.78856 1464 ft 175 kts 263°
2026-05-06 07:01 48.36289 11.77002 2066 ft 173 kts 265°
2026-05-06 07:01 48.36186 11.75186 2712 ft 179 kts 265°
2026-05-06 07:01 48.35965 11.73251 2960 ft 197 kts 253°
2026-05-06 07:02 48.35169 11.71538 3131 ft 214 kts 217°
2026-05-06 07:02 48.33745 11.70844 3548 ft 220 kts 185°
2026-05-06 07:02 48.32211 11.70779 4053 ft 221 kts 180°
2026-05-06 07:02 48.30668 11.70775 4551 ft 223 kts 180°
2026-05-06 07:03 48.29118 11.70912 5052 ft 224 kts 169°
2026-05-06 07:03 48.27665 11.71815 5449 ft 233 kts 149°
2026-05-06 07:03 48.26259 11.73204 5712 ft 251 kts 146°
2026-05-06 07:03 48.24784 11.74738 6089 ft 262 kts 146°
2026-05-06 07:04 48.23274 11.76305 6702 ft 265 kts 146°
2026-05-06 07:04 48.21747 11.77875 7316 ft 268 kts 147°
2026-05-06 07:04 48.20210 11.79477 7922 ft 271 kts 144°
2026-05-06 07:04 48.18908 11.81558 8540 ft 278 kts 123°
2026-05-06 07:05 48.18291 11.84315 9145 ft 286 kts 97°
2026-05-06 07:05 48.18360 11.87316 9781 ft 291 kts 86°
2026-05-06 07:05 48.18598 11.90359 10329 ft 296 kts 85°
2026-05-06 07:05 48.18842 11.93404 10883 ft 300 kts 86°
2026-05-06 07:06 48.19081 11.96526 11454 ft 304 kts 86°
2026-05-06 07:06 48.19314 11.99690 12024 ft 307 kts 86°
2026-05-06 07:06 48.19544 12.02894 12584 ft 311 kts 87°
2026-05-06 07:06 48.19775 12.06138 13122 ft 315 kts 87°
2026-05-06 07:07 48.20006 12.09432 13671 ft 319 kts 87°
2026-05-06 07:07 48.20238 12.12759 14149 ft 323 kts 87°
2026-05-06 07:07 48.20472 12.16124 14643 ft 326 kts 87°
2026-05-06 07:07 48.20707 12.19528 15138 ft 329 kts 87°
2026-05-06 07:08 48.20942 12.22963 15611 ft 333 kts 87°
2026-05-06 07:08 48.21179 12.26424 16092 ft 336 kts 87°
2026-05-06 07:08 48.21417 12.29928 16561 ft 339 kts 87°
2026-05-06 07:08 48.21656 12.33470 17034 ft 342 kts 87°
2026-05-06 07:09 48.21897 12.37033 17543 ft 345 kts 87°
2026-05-06 07:09 48.22138 12.40631 17995 ft 349 kts 87°
2026-05-06 07:09 48.22381 12.44270 18410 ft 352 kts 87°
2026-05-06 07:09 48.22624 12.47934 18809 ft 355 kts 88°
2026-05-06 07:10 48.22869 12.51642 19215 ft 358 kts 88°
2026-05-06 07:10 48.23090 12.55376 19618 ft 360 kts 91°
2026-05-06 07:10 48.22968 12.59128 19901 ft 363 kts 101°
2026-05-06 07:10 48.22631 12.62875 20078 ft 373 kts 103°
2026-05-06 07:11 48.22248 12.66784 20251 ft 384 kts 103°
2026-05-06 07:11 48.21856 12.70800 20431 ft 395 kts 103°
2026-05-06 07:11 48.21457 12.74932 20612 ft 406 kts 103°
2026-05-06 07:11 48.21049 12.79177 20790 ft 417 kts 102°
2026-05-06 07:12 48.20769 12.83574 20971 ft 430 kts 97°
2026-05-06 07:12 48.20706 12.88124 21167 ft 442 kts 94°
2026-05-06 07:12 48.20765 12.92779 21473 ft 449 kts 92°
2026-05-06 07:12 48.20874 12.97494 21834 ft 454 kts 91°
2026-05-06 07:13 48.20992 13.02242 22266 ft 458 kts 91°
2026-05-06 07:13 48.21099 13.07032 22682 ft 461 kts 92°
2026-05-06 07:13 48.21192 13.11832 22845 ft 456 kts 92°
2026-05-06 07:13 48.21271 13.16533 22838 ft 448 kts 93°
2026-05-06 07:14 48.21337 13.21186 22848 ft 446 kts 93°
2026-05-06 07:14 48.21393 13.25783 22843 ft 446 kts 93°
2026-05-06 07:14 48.21444 13.30437 22836 ft 446 kts 93°
2026-05-06 07:14 48.21493 13.35082 22835 ft 446 kts 93°
2026-05-06 07:15 48.21543 13.39733 22823 ft 446 kts 94°
2026-05-06 07:15 48.21590 13.44389 22845 ft 446 kts 94°
2026-05-06 07:15 48.21638 13.49056 22845 ft 446 kts 94°
2026-05-06 07:15 48.21683 13.53702 22841 ft 446 kts 94°
2026-05-06 07:16 48.21727 13.58354 22846 ft 446 kts 94°
2026-05-06 07:16 48.21769 13.63008 22844 ft 446 kts 94°
2026-05-06 07:16 48.21809 13.67652 22847 ft 446 kts 94°
2026-05-06 07:16 48.21848 13.72302 22839 ft 446 kts 94°
2026-05-06 07:17 48.21885 13.76949 22845 ft 446 kts 94°
2026-05-06 07:17 48.21919 13.81598 22816 ft 446 kts 94°
2026-05-06 07:17 48.21953 13.86258 22841 ft 446 kts 94°
2026-05-06 07:17 48.21983 13.90916 22843 ft 447 kts 94°
2026-05-06 07:18 48.21959 13.95565 22840 ft 444 kts 99°
2026-05-06 07:18 48.21432 14.00063 22844 ft 434 kts 113°
2026-05-06 07:18 48.20473 14.04336 22841 ft 431 kts 117°
2026-05-06 07:18 48.19364 14.08503 22855 ft 429 kts 119°
2026-05-06 07:19 48.18177 14.12600 22856 ft 428 kts 120°
2026-05-06 07:19 48.16970 14.16618 22857 ft 428 kts 121°
2026-05-06 07:19 48.15741 14.20678 22856 ft 428 kts 121°
2026-05-06 07:19 48.14517 14.24740 22846 ft 429 kts 120°
2026-05-06 07:20 48.13296 14.28823 22856 ft 430 kts 120°
2026-05-06 07:20 48.12079 14.32917 22854 ft 431 kts 120°
2026-05-06 07:20 48.10867 14.37014 22851 ft 431 kts 120°
2026-05-06 07:20 48.09655 14.41119 22853 ft 431 kts 120°
2026-05-06 07:21 48.08441 14.45226 22851 ft 431 kts 120°
2026-05-06 07:21 48.07227 14.49325 22850 ft 431 kts 120°
2026-05-06 07:21 48.06013 14.53417 22849 ft 431 kts 120°
2026-05-06 07:21 48.04795 14.57513 22849 ft 431 kts 120°
2026-05-06 07:22 48.03574 14.61613 22841 ft 431 kts 119°
2026-05-06 07:22 48.02349 14.65714 22858 ft 433 kts 119°
2026-05-06 07:22 48.01119 14.69828 22839 ft 434 kts 119°
2026-05-06 07:22 47.99905 14.73885 22861 ft 434 kts 119°
2026-05-06 07:23 47.98671 14.77998 22848 ft 434 kts 119°
2026-05-06 07:23 47.97438 14.82104 22868 ft 434 kts 119°
2026-05-06 07:23 47.96202 14.86209 22863 ft 434 kts 120°
2026-05-06 07:23 47.94965 14.90312 22848 ft 434 kts 120°
2026-05-06 07:24 47.93727 14.94412 22843 ft 434 kts 119°
2026-05-06 07:24 47.92485 14.98522 22850 ft 434 kts 119°
2026-05-06 07:24 47.91240 15.02625 22859 ft 435 kts 119°
2026-05-06 07:24 47.89993 15.06733 22864 ft 435 kts 119°
2026-05-06 07:25 47.88747 15.10835 22866 ft 435 kts 119°
2026-05-06 07:25 47.87495 15.14947 22861 ft 435 kts 119°
2026-05-06 07:25 47.86242 15.19059 22861 ft 435 kts 119°
2026-05-06 07:25 47.84991 15.23159 22863 ft 435 kts 119°
2026-05-06 07:26 47.83736 15.27267 22862 ft 435 kts 119°
2026-05-06 07:26 47.82481 15.31365 22862 ft 435 kts 119°
2026-05-06 07:26 47.81239 15.35406 22860 ft 435 kts 119°
2026-05-06 07:26 47.79990 15.39499 22861 ft 433 kts 118°
2026-05-06 07:27 47.78760 15.43579 22866 ft 431 kts 118°
2026-05-06 07:27 47.77537 15.47640 22889 ft 430 kts 118°
2026-05-06 07:27 47.76309 15.51717 22967 ft 435 kts 118°
2026-05-06 07:27 47.75054 15.55858 23157 ft 444 kts 118°
2026-05-06 07:28 47.73772 15.60076 23501 ft 450 kts 118°
2026-05-06 07:28 47.72478 15.64325 23904 ft 452 kts 118°
2026-05-06 07:28 47.69862 15.72889 24648 ft 458 kts 118°
2026-05-06 07:29 47.68548 15.77182 25151 ft 457 kts 118°
2026-05-06 07:29 47.67228 15.81489 25549 ft 459 kts 118°
2026-05-06 07:29 47.65899 15.85813 25873 ft 462 kts 118°
2026-05-06 07:29 47.64560 15.90163 26252 ft 465 kts 118°
2026-05-06 07:30 47.63211 15.94538 26638 ft 467 kts 118°
2026-05-06 07:30 47.61854 15.98932 26993 ft 470 kts 118°
2026-05-06 07:30 47.60486 16.03353 27364 ft 473 kts 118°
2026-05-06 07:30 47.59111 16.07788 27712 ft 476 kts 118°
2026-05-06 07:31 47.57738 16.12204 28024 ft 478 kts 118°
2026-05-06 07:31 47.56346 16.16684 28454 ft 479 kts 118°
2026-05-06 07:31 47.54949 16.21171 28779 ft 481 kts 118°
2026-05-06 07:31 47.53542 16.25681 29114 ft 484 kts 118°
2026-05-06 07:32 47.52125 16.30217 29419 ft 486 kts 118°
2026-05-06 07:32 47.50702 16.34759 29738 ft 488 kts 118°
2026-05-06 07:32 47.49268 16.39327 30033 ft 491 kts 118°
2026-05-06 07:32 47.47826 16.43913 30267 ft 493 kts 118°
2026-05-06 07:33 47.46376 16.48519 30498 ft 496 kts 118°
2026-05-06 07:33 47.44916 16.53147 30719 ft 498 kts 118°
2026-05-06 07:33 47.43444 16.57810 30902 ft 501 kts 118°
2026-05-06 07:33 47.42177 16.62574 31084 ft 506 kts 114°
2026-05-06 07:34 47.40981 16.67480 31318 ft 508 kts 112°
2026-05-06 07:34 47.39817 16.72415 31508 ft 510 kts 112°
2026-05-06 07:34 47.38664 16.77380 31711 ft 513 kts 112°
2026-05-06 07:34 47.37508 16.82367 31879 ft 515 kts 112°
2026-05-06 07:35 47.36345 16.87370 32186 ft 513 kts 112°
2026-05-06 07:35 47.35187 16.92332 32544 ft 511 kts 112°
2026-05-06 07:35 47.34024 16.97287 32790 ft 512 kts 112°
2026-05-06 07:35 47.32854 17.02241 33030 ft 512 kts 112°
2026-05-06 07:36 47.31678 17.07208 33287 ft 512 kts 112°
2026-05-06 07:36 47.30502 17.12155 33536 ft 512 kts 112°
2026-05-06 07:36 47.29325 17.17100 33772 ft 512 kts 112°
2026-05-06 07:36 47.28144 17.22047 33970 ft 512 kts 112°
2026-05-06 07:37 47.26960 17.26997 34195 ft 511 kts 112°
2026-05-06 07:37 47.25795 17.31858 34434 ft 509 kts 112°
2026-05-06 07:37 47.24620 17.36778 34654 ft 508 kts 112°
2026-05-06 07:37 47.23467 17.41688 34850 ft 508 kts 112°
2026-05-06 07:38 47.21155 17.51593 34909 ft 515 kts 112°
2026-05-06 07:38 47.18823 17.61539 34899 ft 514 kts 111°
2026-05-06 07:39 47.16477 17.71476 34912 ft 515 kts 111°
2026-05-06 07:39 47.14116 17.81418 34916 ft 515 kts 112°
2026-05-06 07:40 47.11743 17.91362 34920 ft 515 kts 112°
2026-05-06 07:40 47.09363 18.01288 34917 ft 515 kts 111°
2026-05-06 07:41 47.06978 18.11193 34922 ft 514 kts 111°
2026-05-06 07:41 47.04589 18.21067 34925 ft 514 kts 111°
2026-05-06 07:42 47.02171 18.30939 34925 ft 514 kts 112°
2026-05-06 07:42 46.99755 18.40730 34929 ft 514 kts 111°
2026-05-06 07:43 46.97322 18.50565 34933 ft 514 kts 111°
2026-05-06 07:43 46.94881 18.60401 34938 ft 514 kts 112°
2026-05-06 07:44 46.92431 18.70226 34938 ft 514 kts 112°
2026-05-06 07:44 46.89971 18.80051 34942 ft 514 kts 112°
2026-05-06 07:45 46.87922 18.88206 34936 ft 514 kts 112°
2026-05-06 07:45 46.85043 18.99608 34944 ft 514 kts 112°
2026-05-06 07:46 46.82561 19.09396 34937 ft 514 kts 112°
2026-05-06 07:46 46.80469 19.17608 34945 ft 516 kts 112°
2026-05-06 07:47 46.77958 19.27432 34946 ft 517 kts 112°
2026-05-06 07:47 46.75454 19.37187 34945 ft 517 kts 112°
2026-05-06 07:48 46.72925 19.46995 34944 ft 517 kts 112°
2026-05-06 07:48 46.70365 19.56880 34954 ft 518 kts 112°
2026-05-06 07:49 46.67830 19.66634 34959 ft 518 kts 112°
2026-05-06 07:49 46.65265 19.76456 34962 ft 518 kts 112°
2026-05-06 07:50 46.62687 19.86259 34959 ft 518 kts 112°
2026-05-06 07:50 46.59939 19.95945 34965 ft 518 kts 114°
2026-05-06 07:51 46.57115 20.05592 34967 ft 518 kts 114°
2026-05-06 07:51 46.54307 20.15237 34967 ft 518 kts 114°
2026-05-06 07:52 46.51510 20.24887 34970 ft 518 kts 114°
2026-05-06 07:52 46.48711 20.34531 34970 ft 518 kts 114°
2026-05-06 07:53 46.45921 20.44107 34971 ft 518 kts 114°
2026-05-06 07:53 46.43104 20.53734 34973 ft 518 kts 114°
2026-05-06 07:54 46.40275 20.63361 34979 ft 519 kts 114°
2026-05-06 07:54 46.37439 20.72976 34978 ft 519 kts 114°
2026-05-06 07:55 46.34598 20.82571 34983 ft 519 kts 114°
2026-05-06 07:55 46.31746 20.92162 34994 ft 519 kts 114°
2026-05-06 07:56 46.28887 21.01745 35005 ft 518 kts 114°
2026-05-06 07:56 46.26023 21.11308 35018 ft 518 kts 114°
2026-05-06 07:57 46.23121 21.20775 35019 ft 518 kts 115°
2026-05-06 07:57 46.20147 21.30257 35013 ft 518 kts 114°
2026-05-06 07:58 46.17164 21.39750 35010 ft 519 kts 114°
2026-05-06 07:58 46.14183 21.49244 35022 ft 520 kts 114°
2026-05-06 07:59 46.11214 21.58681 35010 ft 520 kts 114°
2026-05-06 07:59 46.08219 21.68164 34996 ft 520 kts 114°
2026-05-06 08:00 46.05212 21.77651 34999 ft 520 kts 114°
2026-05-06 08:00 46.02196 21.87128 35018 ft 521 kts 114°
2026-05-06 08:01 45.99174 21.96588 35006 ft 520 kts 114°
2026-05-06 08:01 45.96150 22.06021 35009 ft 519 kts 114°
2026-05-06 08:02 45.93115 22.15453 35013 ft 519 kts 114°
2026-05-06 08:02 45.90072 22.24874 35014 ft 519 kts 114°
2026-05-06 08:03 45.87030 22.34259 35016 ft 518 kts 114°
2026-05-06 08:03 45.83981 22.43636 35015 ft 518 kts 114°
2026-05-06 08:04 45.80924 22.53000 35007 ft 518 kts 114°
2026-05-06 08:04 45.77879 22.62291 35007 ft 517 kts 114°
2026-05-06 08:05 45.74814 22.71614 35005 ft 517 kts 114°
2026-05-06 08:05 45.71744 22.80918 35007 ft 517 kts 114°
2026-05-06 08:06 45.68666 22.90212 35003 ft 517 kts 114°
2026-05-06 08:06 45.65586 22.99478 35009 ft 515 kts 114°
2026-05-06 08:07 45.62505 23.08717 35000 ft 515 kts 114°
2026-05-06 08:07 45.59409 23.17970 35009 ft 517 kts 114°
2026-05-06 08:08 45.56302 23.27221 35019 ft 516 kts 114°
2026-05-06 08:08 45.53194 23.36440 35017 ft 515 kts 114°
2026-05-06 08:09 45.50104 23.45577 35022 ft 515 kts 115°
2026-05-06 08:09 45.46986 23.54766 35028 ft 515 kts 114°
2026-05-06 08:10 45.43857 23.63954 35026 ft 515 kts 115°
2026-05-06 08:10 45.40723 23.73126 35029 ft 515 kts 115°
2026-05-06 08:11 45.37581 23.82290 35024 ft 515 kts 115°
2026-05-06 08:11 45.34433 23.91436 35026 ft 514 kts 115°
2026-05-06 08:12 45.31290 24.00539 35024 ft 512 kts 115°
2026-05-06 08:12 45.28163 24.09565 35025 ft 512 kts 115°
2026-05-06 08:13 45.25015 24.18626 35021 ft 512 kts 115°
2026-05-06 08:13 45.21859 24.27673 35020 ft 511 kts 115°
2026-05-06 08:14 45.18700 24.36695 35020 ft 510 kts 115°
2026-05-06 08:14 45.15536 24.45703 35023 ft 510 kts 115°
2026-05-06 08:15 45.12388 24.54643 35027 ft 510 kts 115°
2026-05-06 08:15 45.09220 24.63604 35021 ft 508 kts 115°
2026-05-06 08:16 45.06048 24.72546 35022 ft 508 kts 115°
2026-05-06 08:16 45.02866 24.81489 35020 ft 509 kts 115°
2026-05-06 08:17 44.99674 24.90430 35024 ft 509 kts 115°
2026-05-06 08:17 44.96475 24.99360 35027 ft 509 kts 115°
2026-05-06 08:18 44.93275 25.08265 35030 ft 509 kts 115°
2026-05-06 08:18 44.90064 25.17169 35038 ft 509 kts 115°
2026-05-06 08:19 44.86870 25.25997 35029 ft 508 kts 115°
2026-05-06 08:19 44.83655 25.34860 35032 ft 508 kts 115°
2026-05-06 08:20 44.80429 25.43722 35031 ft 508 kts 115°
2026-05-06 08:20 44.77199 25.52562 35034 ft 507 kts 115°
2026-05-06 08:21 44.73966 25.61382 35037 ft 506 kts 115°
2026-05-06 08:21 44.70751 25.70129 35039 ft 506 kts 115°
2026-05-06 08:22 44.67509 25.78918 35054 ft 506 kts 115°
2026-05-06 08:22 44.64265 25.87686 35044 ft 505 kts 115°
2026-05-06 08:23 44.61019 25.96430 35047 ft 504 kts 115°
2026-05-06 08:23 44.57771 26.05155 35048 ft 504 kts 115°
2026-05-06 08:24 44.54512 26.13879 35048 ft 504 kts 115°
2026-05-06 08:24 44.51280 26.22504 35047 ft 503 kts 115°
2026-05-06 08:25 44.48020 26.31178 35039 ft 503 kts 115°
2026-05-06 08:25 44.44753 26.39844 35039 ft 503 kts 115°
2026-05-06 08:26 44.41477 26.48505 35043 ft 504 kts 115°
2026-05-06 08:26 44.38190 26.57169 35043 ft 504 kts 115°
2026-05-06 08:27 44.34900 26.65814 35043 ft 504 kts 115°
2026-05-06 08:27 44.31597 26.74465 35042 ft 504 kts 116°
2026-05-06 08:28 44.28289 26.83104 35042 ft 504 kts 116°
2026-05-06 08:28 44.24974 26.91732 35042 ft 504 kts 116°
2026-05-06 08:29 44.21655 27.00347 35059 ft 504 kts 116°
2026-05-06 08:29 44.18330 27.08950 35044 ft 504 kts 116°
2026-05-06 08:30 44.15016 27.17497 35048 ft 505 kts 116°
2026-05-06 08:30 44.11675 27.26090 35053 ft 505 kts 116°
2026-05-06 08:31 44.08322 27.34685 35057 ft 504 kts 116°
2026-05-06 08:31 44.04969 27.43253 35050 ft 504 kts 116°
2026-05-06 08:32 44.02244 27.50199 35052 ft 504 kts 116°
2026-05-06 08:32 43.98953 27.58566 35052 ft 504 kts 116°
2026-05-06 08:33 43.95587 27.67097 35062 ft 502 kts 116°
2026-05-06 08:33 43.92249 27.75530 35068 ft 501 kts 116°
2026-05-06 08:34 43.87200 27.88242 35063 ft 501 kts 117°
2026-05-06 08:35 43.84397 27.95274 35071 ft 500 kts 117°
2026-05-06 08:35 43.81033 28.03687 35078 ft 499 kts 117°
2026-05-06 08:36 43.77653 28.12117 35065 ft 502 kts 117°
2026-05-06 08:36 43.74260 28.20557 35080 ft 502 kts 117°
2026-05-06 08:37 43.70873 28.28954 35097 ft 499 kts 117°
2026-05-06 08:37 43.67486 28.37330 35091 ft 499 kts 117°
2026-05-06 08:38 43.64094 28.45693 35114 ft 499 kts 117°
2026-05-06 08:38 43.60696 28.54043 35116 ft 498 kts 117°
2026-05-06 08:39 43.57322 28.62311 35121 ft 498 kts 117°
2026-05-06 08:39 43.53919 28.70627 35122 ft 498 kts 118°
2026-05-06 08:40 43.50513 28.78927 35123 ft 497 kts 118°
2026-05-06 08:40 43.47105 28.87207 35119 ft 496 kts 118°
2026-05-06 08:41 43.43690 28.95481 35119 ft 496 kts 118°
2026-05-06 08:41 43.40273 29.03735 35121 ft 496 kts 118°
2026-05-06 08:42 43.36846 29.11990 35119 ft 496 kts 118°
2026-05-06 08:42 43.33419 29.20222 35121 ft 496 kts 118°
2026-05-06 08:43 43.29987 29.28441 35122 ft 496 kts 118°
2026-05-06 08:43 43.26565 29.36614 35123 ft 497 kts 118°
2026-05-06 08:44 43.23110 29.44844 35121 ft 498 kts 118°
2026-05-06 08:44 43.19647 29.53065 35118 ft 498 kts 118°
2026-05-06 08:45 43.16180 29.61277 35123 ft 498 kts 118°
2026-05-06 08:45 43.12708 29.69474 35121 ft 498 kts 118°
2026-05-06 08:46 43.09227 29.77671 35121 ft 498 kts 118°
2026-05-06 08:46 43.05738 29.85864 35121 ft 498 kts 118°
2026-05-06 08:47 43.02242 29.94048 35121 ft 499 kts 118°
2026-05-06 08:47 42.98756 30.02189 35121 ft 500 kts 118°
2026-05-06 08:48 42.95236 30.10386 35124 ft 500 kts 118°
2026-05-06 08:48 42.91712 30.18567 35128 ft 500 kts 118°
2026-05-06 08:49 42.88175 30.26757 35120 ft 501 kts 118°
2026-05-06 08:49 42.84626 30.34953 35122 ft 502 kts 118°
2026-05-06 08:50 42.81072 30.43137 35126 ft 502 kts 118°
2026-05-06 08:50 42.77507 30.51320 35121 ft 503 kts 118°
2026-05-06 08:51 42.74176 30.59666 35121 ft 500 kts 109°
2026-05-06 08:51 42.72082 30.68647 35124 ft 497 kts 103°
2026-05-06 08:52 42.70297 30.77729 35123 ft 498 kts 101°
2026-05-06 08:52 42.68557 30.86801 35122 ft 499 kts 102°
2026-05-06 08:53 42.66779 30.95930 35125 ft 499 kts 102°
2026-05-06 08:53 42.64977 31.05045 35124 ft 499 kts 102°
2026-05-06 08:54 42.63163 31.14154 35123 ft 500 kts 102°
2026-05-06 08:54 42.61338 31.23282 35123 ft 500 kts 102°
2026-05-06 08:55 42.59508 31.32394 35122 ft 500 kts 102°
2026-05-06 08:55 42.57683 31.41440 35115 ft 500 kts 102°
2026-05-06 08:56 42.55844 31.50515 35118 ft 498 kts 102°
2026-05-06 08:56 42.53997 31.59593 35124 ft 498 kts 102°
2026-05-06 08:57 42.52158 31.68589 35121 ft 498 kts 102°
2026-05-06 08:57 42.50300 31.77640 35122 ft 498 kts 102°
2026-05-06 08:58 42.48437 31.86673 35123 ft 498 kts 102°
2026-05-06 08:58 42.46567 31.95701 35120 ft 498 kts 102°
2026-05-06 08:59 42.44685 32.04746 35140 ft 498 kts 102°
2026-05-06 08:59 42.42804 32.13749 35122 ft 496 kts 103°
2026-05-06 09:00 42.40918 32.22735 35121 ft 496 kts 103°
2026-05-06 09:00 42.39026 32.31716 35125 ft 496 kts 103°
2026-05-06 09:01 42.37141 32.40619 35127 ft 496 kts 103°
2026-05-06 09:01 42.35237 32.49577 35121 ft 496 kts 103°
2026-05-06 09:02 42.33440 32.58567 35122 ft 494 kts 97°
2026-05-06 09:02 42.32287 32.67699 35121 ft 493 kts 96°
2026-05-06 09:03 42.31253 32.76846 35122 ft 492 kts 95°
2026-05-06 09:03 42.30230 32.85994 35124 ft 493 kts 95°
2026-05-06 09:04 42.29191 32.95134 35126 ft 493 kts 96°
2026-05-06 09:04 42.28136 33.04275 35124 ft 493 kts 96°
2026-05-06 09:05 42.27072 33.13423 35122 ft 493 kts 96°
2026-05-06 09:05 42.25998 33.22576 35121 ft 493 kts 96°
2026-05-06 09:06 42.24918 33.31723 35134 ft 493 kts 96°
2026-05-06 09:06 42.23832 33.40860 35126 ft 492 kts 96°
2026-05-06 09:07 42.22741 33.49976 35125 ft 492 kts 97°
2026-05-06 09:07 42.21643 33.59080 35124 ft 491 kts 97°
2026-05-06 09:08 42.20546 33.68119 35124 ft 491 kts 97°
2026-05-06 09:08 42.19435 33.77213 35124 ft 491 kts 97°
2026-05-06 09:09 42.18320 33.86303 35126 ft 491 kts 97°
2026-05-06 09:09 42.17196 33.95390 35127 ft 491 kts 97°
2026-05-06 09:10 42.16064 34.04456 35125 ft 491 kts 97°
2026-05-06 09:10 42.14923 34.13543 35126 ft 491 kts 98°
2026-05-06 09:11 42.13788 34.22541 35194 ft 489 kts 98°
2026-05-06 09:11 42.12640 34.31559 35258 ft 488 kts 98°
2026-05-06 09:12 42.11491 34.40547 35293 ft 487 kts 98°
2026-05-06 09:12 42.10346 34.49535 35266 ft 487 kts 98°
2026-05-06 09:13 42.09209 34.58547 35190 ft 489 kts 98°
2026-05-06 09:13 42.08587 34.63477 35157 ft 490 kts 98°
2026-05-06 09:14 42.07896 34.68942 35143 ft 490 kts 98°
2026-05-06 09:14 42.06749 34.77983 35146 ft 489 kts 98°
2026-05-06 09:15 42.05599 34.87007 35179 ft 488 kts 98°
2026-05-06 09:15 42.04454 34.95965 35162 ft 489 kts 98°
2026-05-06 09:16 42.03319 35.04989 35104 ft 490 kts 98°
2026-05-06 09:16 42.02228 35.14024 35092 ft 490 kts 98°
2026-05-06 09:17 42.01217 35.23083 35121 ft 489 kts 97°
2026-05-06 09:17 42.00275 35.32130 35126 ft 488 kts 97°
2026-05-06 09:18 41.99371 35.41166 35132 ft 487 kts 97°
2026-05-06 09:18 41.98500 35.50201 35118 ft 487 kts 96°
2026-05-06 09:19 48.35544 11.79298 35090 ft 2 kts 263°